Starlink 6188

operational
NORAD ID: 56376 Int'l Des: 2023-061 Owner: SPXS Country: US Constellation: starlink
LEOCIRCULAR

Über Starlink 6188

Beschreibung wird geladen...

Live-Position

3D-Globus wird geladen...

Nächste Überflüge

Höhenverlauf

Altitude vs Time

uPlot chart will show altitude changes over time

Zweizeiliger Elementsatz

1 56376U 23061C 25352.17083797 -.00000398 00000-0 -14421-4 0 9996
2 56376 43.0032 280.2901 0000983 274.0918 85.9812 15.02531088144492
Epoch: 18. Dez. 2025 • Age: 9 hours

Aktueller Status

Höhe 562.6 km
Geschwindigkeit 7.58 km/s
Subsatellitenpunkt -17.68°S, 164.12°W
Startdatum 4. Mai 2023
Alter 2.6 years
Typ internet

Technische Details

Klassifizierung Payload
Masse 305.00 kg
Trockenmasse 290.00 kg
Gesamtmasse 305.00 kg
Länge 0.20 m
Durchmesser 2.80 m
Spannweite 9.00 m
Form Box + pan
Hersteller SPXS
Bus-Typ Starlink
Phasenstatus In Orbit
Besitzer/Staat SPXS/US

Große Konstellationen

Loading constellations...